�������l�o���
Date,Time,MP-1(��Sv/h),MP-2(��Sv/h),MP-3(��Sv/h),MP-4(��Sv/h),MP-5(��Sv/h),MP-6(��Sv/h),MP-7(��Sv/h),MP-8(��Sv/h),����,����(m/s),���J
2019/02/12,00:00,0.765,1.123,0.785,1.443,1.040,0.441,0.786,0.743,��,5.8,��
2019/02/12,00:10,0.765,1.124,0.784,1.443,1.044,0.441,0.785,0.744,��,5.2,��
2019/02/12,00:20,0.766,1.124,0.785,1.443,1.040,0.440,0.782,0.744,��,5.0,��
2019/02/12,00:30,0.767,1.126,0.785,1.444,1.040,0.439,0.785,0.743,��쐼,4.4,��
2019/02/12,00:40,0.766,1.125,0.785,1.444,1.041,0.439,0.785,0.743,��쐼,4.3,��
2019/02/12,00:50,0.765,1.125,0.785,1.445,1.041,0.440,0.784,0.745,��,4.5,��
2019/02/12,01:00,0.763,1.126,0.785,1.442,1.042,0.440,0.785,0.743,��,5.3,��
2019/02/12,01:10,0.767,1.126,0.786,1.443,1.042,0.440,0.784,0.743,��,5.9,��
2019/02/12,01:20,0.766,1.126,0.783,1.442,1.042,0.441,0.785,0.745,��쐼,4.4,��
2019/02/12,01:30,0.767,1.125,0.784,1.443,1.043,0.441,0.786,0.743,��쐼,3.9,��
2019/02/12,01:40,0.766,1.125,0.784,1.444,1.042,0.440,0.786,0.744,��쐼,4.4,�L
2019/02/12,01:50,0.768,1.124,0.784,1.444,1.041,0.440,0.784,0.744,�쐼,5.2,�L
2019/02/12,02:00,0.767,1.125,0.785,1.444,1.042,0.440,0.785,0.743,�쐼,6.2,��
2019/02/12,02:10,0.768,1.124,0.784,1.442,1.041,0.440,0.786,0.744,��,5.9,�L
2019/02/12,02:20,0.769,1.126,0.784,1.444,1.041,0.439,0.784,0.745,��,6.4,�L
2019/02/12,02:30,0.766,1.125,0.785,1.444,1.040,0.440,0.785,0.743,���k��,5.5,��
2019/02/12,02:40,0.765,1.125,0.785,1.444,1.042,0.440,0.784,0.744,�k��,5.4,��
2019/02/12,02:50,0.767,1.122,0.786,1.446,1.043,0.440,0.786,0.744,�k�k��,6.0,��
2019/02/12,03:00,0.766,1.126,0.785,1.443,1.040,0.440,0.785,0.744,�k�k��,8.5,��
2019/02/12,03:10,0.765,1.125,0.783,1.445,1.040,0.440,0.786,0.743,�k�k��,9.0,��
2019/02/12,03:20,0.765,1.124,0.785,1.446,1.042,0.439,0.787,0.743,�k�k��,8.2,��
2019/02/12,03:30,0.767,1.123,0.785,1.445,1.040,0.441,0.787,0.744,�k�k��,7.8,��
2019/02/12,03:40,0.765,1.123,0.784,1.447,1.041,0.440,0.786,0.745,�k�k��,6.3,��
2019/02/12,03:50,0.766,1.127,0.784,1.444,1.042,0.438,0.784,0.742,�k�k��,6.3,��
2019/02/12,04:00,0.765,1.124,0.783,1.443,1.039,0.438,0.785,0.742,�k�k��,6.7,��
2019/02/12,04:10,0.765,1.123,0.783,1.446,1.041,0.438,0.785,0.744,�k�k��,6.4,��
2019/02/12,04:20,0.765,1.122,0.782,1.447,1.040,0.439,0.784,0.743,�k,4.1,��
2019/02/12,04:30,0.764,1.123,0.785,1.444,1.041,0.439,0.783,0.743,�k�k��,5.4,��
2019/02/12,04:40,0.766,1.124,0.786,1.447,1.042,0.439,0.784,0.743,�k�k��,6.2,��
2019/02/12,04:50,0.766,1.125,0.785,1.447,1.043,0.437,0.785,0.743,�k,7.8,��
2019/02/12,05:00,0.763,1.125,0.783,1.444,1.040,0.437,0.784,0.743,�k�k��,7.6,��
2019/02/12,05:10,0.763,1.124,0.784,1.445,1.039,0.438,0.783,0.744,�k,6.8,��
2019/02/12,05:20,0.766,1.125,0.785,1.445,1.039,0.440,0.783,0.743,�k,7.1,��
2019/02/12,05:30,0.763,1.122,0.785,1.446,1.041,0.437,0.783,0.741,�k,6.4,��
2019/02/12,05:40,0.765,1.123,0.782,1.447,1.043,0.436,0.782,0.743,�k�k��,6.3,��
2019/02/12,05:50,0.763,1.120,0.784,1.443,1.036,0.437,0.783,0.743,�k�k��,7.1,��
2019/02/12,06:00,0.764,1.122,0.784,1.446,1.038,0.438,0.783,0.742,�k�k��,7.0,��
2019/02/12,06:10,0.763,1.121,0.784,1.444,1.037,0.437,0.782,0.742,�k�k��,7.0,��
2019/02/12,06:20,0.765,1.124,0.783,1.442,1.038,0.439,0.784,0.743,�k�k��,6.6,��
2019/02/12,06:30,0.764,1.122,0.781,1.445,1.038,0.437,0.783,0.742,�k�k��,6.1,��
2019/02/12,06:40,0.763,1.125,0.780,1.445,1.039,0.438,0.783,0.743,�k�k��,6.4,��
2019/02/12,06:50,0.763,1.123,0.783,1.443,1.037,0.436,0.783,0.743,�k�k��,6.0,��
2019/02/12,07:00,0.764,1.122,0.781,1.447,1.039,0.436,0.783,0.742,�k�k��,4.9,��
2019/02/12,07:10,0.763,1.122,0.782,1.446,1.038,0.438,0.783,0.743,�k�k��,4.8,��
2019/02/12,07:20,0.764,1.123,0.782,1.446,1.037,0.437,0.782,0.741,�k�k��,4.8,��
2019/02/12,07:30,0.764,1.123,0.783,1.443,1.038,0.437,0.783,0.741,�k�k��,5.9,��
2019/02/12,07:40,0.763,1.123,0.783,1.446,1.040,0.437,0.783,0.742,�k�k��,5.9,��
2019/02/12,07:50,0.765,1.124,0.783,1.444,1.037,0.436,0.784,0.741,�k�k��,6.1,��
2019/02/12,08:00,0.764,1.122,0.782,1.446,1.039,0.438,0.786,0.743,�k�k��,6.1,��
2019/02/12,08:10,0.766,1.123,0.783,1.446,1.039,0.438,0.785,0.742,�k��,8.4,��
2019/02/12,08:20,0.763,1.125,0.783,1.445,1.040,0.436,0.786,0.743,�k�k��,9.2,��
2019/02/12,08:30,0.765,1.123,0.784,1.445,1.038,0.440,0.784,0.743,�k��,8.3,��
2019/02/12,08:40,0.763,1.123,0.782,1.448,1.041,0.440,0.785,0.744,�k��,8.1,��
2019/02/12,08:50,0.763,1.122,0.783,1.447,1.041,0.438,0.785,0.744,�k��,7.5,��
2019/02/12,09:00,0.766,1.127,0.785,1.447,1.041,0.437,0.786,0.744,�k��,9.2,��
2019/02/12,09:10,0.766,1.121,0.782,1.448,1.042,0.438,0.787,0.743,�k��,6.4,��
2019/02/12,09:20,0.766,1.124,0.785,1.445,1.040,0.438,0.785,0.745,�k�k��,8.7,��
2019/02/12,09:30,0.765,1.121,0.783,1.447,1.040,0.439,0.785,0.744,�k�k��,7.8,��
2019/02/12,09:40,0.763,1.126,0.783,1.449,1.042,0.437,0.785,0.743,�k��,8.5,��
2019/02/12,09:50,0.761,1.125,0.785,1.447,1.042,0.438,0.784,0.745,�k��,8.8,��
2019/02/12,10:00,0.759,1.126,0.783,1.450,1.042,0.439,0.783,0.746,�k��,8.5,��
2019/02/12,10:10,0.761,1.133,0.784,1.449,1.043,0.439,0.785,0.743,�k��,8.0,��
2019/02/12,10:20,0.757,1.130,0.785,1.447,1.043,0.440,0.784,0.745,�k��,8.2,��
2019/02/12,10:30,0.760,1.134,0.785,1.449,1.044,0.438,0.785,0.745,�k�k��,6.2,��
2019/02/12,10:40,0.760,1.134,0.784,1.447,1.044,0.439,0.785,0.744,�k�k��,6.5,��
2019/02/12,10:50,0.759,1.133,0.785,1.453,1.044,0.439,0.783,0.746,�k�k��,7.6,��
2019/02/12,11:00,0.761,1.129,0.784,1.451,1.046,0.439,0.785,0.745,�k�k��,9.0,��
2019/02/12,11:10,0.763,1.123,0.787,1.454,1.045,0.439,0.784,0.744,�k�k��,8.2,��
2019/02/12,11:20,0.763,1.120,0.787,1.454,1.047,0.439,0.782,0.744,�k��,9.4,��
2019/02/12,11:30,0.762,1.125,0.788,1.454,1.048,0.439,0.784,0.746,�k��,7.2,��
2019/02/12,11:40,0.762,1.127,0.787,1.454,1.047,0.438,0.783,0.745,�k�k��,6.6,��
2019/02/12,11:50,0.762,1.130,0.788,1.452,1.050,0.440,0.784,0.745,�k�k��,6.4,��
2019/02/12,12:00,0.765,1.131,0.788,1.454,1.051,0.440,0.783,0.746,�k��,8.5,��
2019/02/12,12:10,0.763,1.135,0.789,1.456,1.047,0.438,0.782,0.746,�k��,9.2,��
2019/02/12,12:20,0.764,1.136,0.788,1.455,1.048,0.441,0.785,0.748,�k��,8.2,��
2019/02/12,12:30,0.763,1.138,0.789,1.455,1.051,0.440,0.784,0.745,�k��,9.3,��
2019/02/12,12:40,0.765,1.132,0.789,1.455,1.051,0.440,0.785,0.745,�k��,8.7,��
2019/02/12,12:50,0.766,1.133,0.788,1.457,1.052,0.439,0.784,0.746,�k��,8.4,��
2019/02/12,13:00,0.768,1.134,0.787,1.456,1.049,0.440,0.785,0.746,�k��,9.4,��
2019/02/12,13:10,0.769,1.133,0.787,1.458,1.050,0.440,0.785,0.746,�k��,9.1,��
2019/02/12,13:20,0.771,1.133,0.787,1.456,1.050,0.440,0.785,0.746,�k��,10.2,��
2019/02/12,13:30,0.770,1.133,0.788,1.455,1.050,0.439,0.785,0.746,�k��,10.2,��
2019/02/12,13:40,0.767,1.132,0.788,1.458,1.051,0.439,0.786,0.746,�k��,8.5,��
2019/02/12,13:50,0.767,1.134,0.789,1.458,1.050,0.439,0.785,0.745,�k��,8.8,��
2019/02/12,14:00,0.767,1.131,0.786,1.457,1.051,0.439,0.786,0.746,�k��,8.1,��
2019/02/12,14:10,0.766,1.131,0.788,1.457,1.049,0.440,0.787,0.745,�k��,8.1,��
2019/02/12,14:20,0.769,1.134,0.790,1.458,1.051,0.438,0.787,0.743,�k��,6.3,��
2019/02/12,14:30,0.769,1.132,0.788,1.459,1.050,0.440,0.788,0.747,���k��,8.9,��
2019/02/12,14:40,0.770,1.135,0.787,1.458,1.051,0.440,0.787,0.745,�k��,6.9,��
2019/02/12,14:50,0.770,1.136,0.787,1.459,1.052,0.440,0.786,0.746,���k��,7.9,��
2019/02/12,15:00,0.771,1.134,0.787,1.460,1.051,0.441,0.788,0.743,�k��,7.6,��
2019/02/12,15:10,0.771,1.133,0.790,1.461,1.049,0.439,0.787,0.746,�k��,5.5,��
2019/02/12,15:20,0.771,1.136,0.789,1.458,1.051,0.441,0.789,0.745,�k��,6.3,��
2019/02/12,15:30,0.770,1.135,0.790,1.462,1.052,0.439,0.789,0.745,�k��,5.0,��
2019/02/12,15:40,0.771,1.137,0.788,1.457,1.051,0.442,0.788,0.745,�k��,6.1,��
2019/02/12,15:50,0.771,1.138,0.790,1.458,1.051,0.441,0.788,0.745,�k��,7.7,��
2019/02/12,16:00,0.771,1.138,0.790,1.462,1.050,0.440,0.788,0.746,�k��,7.7,��
2019/02/12,16:10,0.770,1.138,0.789,1.459,1.051,0.441,0.787,0.745,�k�k��,6.3,��
2019/02/12,16:20,0.769,1.138,0.789,1.461,1.050,0.440,0.787,0.747,�k�k��,5.6,��
2019/02/12,16:30,0.770,1.140,0.787,1.460,1.051,0.439,0.786,0.745,�k��,6.9,��
2019/02/12,16:40,0.769,1.141,0.790,1.458,1.051,0.440,0.788,0.743,�k��,6.7,��
2019/02/12,16:50,0.771,1.138,0.788,1.458,1.050,0.438,0.788,0.744,�k��,4.9,��
2019/02/12,17:00,0.772,1.140,0.787,1.459,1.050,0.440,0.787,0.744,�k��,4.1,��
2019/02/12,17:10,0.770,1.137,0.789,1.461,1.051,0.440,0.788,0.747,�k��,4.7,��
2019/02/12,17:20,0.770,1.140,0.789,1.461,1.050,0.440,0.787,0.745,�k��,6.4,��
2019/02/12,17:30,0.770,1.139,0.788,1.459,1.052,0.439,0.786,0.745,�k��,6.4,��
2019/02/12,17:40,0.770,1.139,0.791,1.462,1.051,0.439,0.786,0.745,�k��,6.8,��
2019/02/12,17:50,0.769,1.138,0.787,1.461,1.050,0.439,0.786,0.746,�k��,5.6,��
2019/02/12,18:00,0.770,1.138,0.790,1.461,1.050,0.439,0.788,0.745,�k��,5.5,��
2019/02/12,18:10,0.769,1.136,0.787,1.459,1.053,0.439,0.787,0.745,�k��,5.1,��
2019/02/12,18:20,0.770,1.140,0.787,1.459,1.050,0.438,0.785,0.744,�k��,3.6,��
2019/02/12,18:30,0.770,1.140,0.789,1.461,1.048,0.439,0.788,0.743,�k��,3.5,��
2019/02/12,18:40,0.770,1.138,0.789,1.462,1.051,0.440,0.786,0.745,�k�k��,5.0,��
2019/02/12,18:50,0.768,1.138,0.786,1.461,1.052,0.438,0.787,0.745,�k�k��,5.6,��
2019/02/12,19:00,0.770,1.140,0.788,1.461,1.051,0.440,0.786,0.746,�k�k��,4.6,��
2019/02/12,19:10,0.768,1.140,0.788,1.460,1.050,0.441,0.785,0.744,�k�k��,4.6,��
2019/02/12,19:20,0.768,1.138,0.788,1.461,1.048,0.437,0.785,0.745,�k��,5.2,��
2019/02/12,19:30,0.767,1.135,0.787,1.460,1.049,0.438,0.786,0.746,�k��,4.6,��
2019/02/12,19:40,0.765,1.139,0.788,1.463,1.051,0.438,0.786,0.745,�k��,4.0,��
2019/02/12,19:50,0.767,1.137,0.789,1.459,1.050,0.438,0.785,0.744,�k��,5.1,��
2019/02/12,20:00,0.769,1.137,0.789,1.460,1.050,0.439,0.786,0.746,�k��,6.5,��
2019/02/12,20:10,0.767,1.139,0.789,1.461,1.048,0.438,0.786,0.744,�k��,6.6,��
2019/02/12,20:20,0.767,1.138,0.788,1.460,1.051,0.439,0.786,0.745,�k��,6.1,��
2019/02/12,20:30,0.770,1.139,0.788,1.459,1.050,0.438,0.785,0.744,�k��,5.5,��
2019/02/12,20:40,0.766,1.137,0.788,1.461,1.050,0.439,0.787,0.742,�k��,5.5,��
2019/02/12,20:50,0.767,1.136,0.787,1.461,1.050,0.439,0.786,0.746,�k��,4.9,��
2019/02/12,21:00,0.770,1.137,0.788,1.459,1.048,0.439,0.786,0.744,�k��,4.3,��
2019/02/12,21:10,0.768,1.136,0.788,1.459,1.048,0.439,0.785,0.744,�k��,4.4,��
2019/02/12,21:20,0.769,1.136,0.790,1.461,1.050,0.440,0.785,0.744,�k�k��,3.9,��
2019/02/12,21:30,0.767,1.137,0.789,1.463,1.049,0.437,0.785,0.744,�k��,4.8,��
2019/02/12,21:40,0.766,1.136,0.789,1.459,1.049,0.439,0.786,0.744,�k��,4.5,��
2019/02/12,21:50,0.766,1.137,0.789,1.462,1.051,0.438,0.786,0.745,�k��,5.7,��
2019/02/12,22:00,0.768,1.136,0.787,1.462,1.048,0.438,0.786,0.745,�k��,5.9,��
2019/02/12,22:10,0.768,1.139,0.789,1.461,1.052,0.438,0.786,0.744,�k��,6.6,��
2019/02/12,22:20,0.767,1.135,0.788,1.461,1.049,0.439,0.786,0.746,�k��,5.9,��
2019/02/12,22:30,0.769,1.138,0.788,1.460,1.049,0.439,0.784,0.746,�k��,7.0,��
2019/02/12,22:40,0.770,1.135,0.789,1.459,1.049,0.437,0.785,0.746,�k��,8.2,��
2019/02/12,22:50,0.767,1.136,0.786,1.460,1.048,0.436,0.784,0.745,�k��,7.5,��
2019/02/12,23:00,0.767,1.131,0.787,1.459,1.048,0.438,0.786,0.745,�k��,7.0,��
2019/02/12,23:10,0.769,1.136,0.788,1.459,1.047,0.439,0.786,0.744,�k��,7.1,��
2019/02/12,23:20,0.767,1.135,0.785,1.460,1.050,0.437,0.786,0.745,�k�k��,5.9,��
2019/02/12,23:30,0.767,1.136,0.785,1.459,1.049,0.438,0.786,0.746,�k�k��,5.9,��
2019/02/12,23:40,0.767,1.138,0.786,1.461,1.049,0.438,0.785,0.745,�k�k��,6.3,��
2019/02/12,23:50,0.767,1.135,0.786,1.462,1.048,0.437,0.784,0.744,�k�k��,6.2,��
